EUTELSAT 115 WEST B

Last updated on Fri Apr 25 2025 00:02:40 GMT+0000 (Coordinated Universal Time)

1 40425U 15010B 25114.54870421 -.00000023 00000+0 00000+0 0 9990 2 40425 0.0117 93.1135 0000310 233.3943 328.9598 1.00275419 37237
UTC large
Height (km)
Speed (km/s)
/
Latitude / Longitude
Inclination (degrees)
Orbital Period (minutes)
Azimuth
Elevation
Range (km)
Doppler Factor

Next 0 passes for location: London (51.5072 / 0.1276)

Sorry there are no passes over London.